Location: La Trinit�
(48.1620°N, 3.4512°W)
Time: 09:34:42
(UTC+00:00)

Cosmos 158 Rocket - Pass Details

Date: 08 May 2021
Orbit: 699 x 793 km, 74.0° (Epoch: 13 June)

Event Time Altitude Azimuth Distance (km) Brightness Sun altitude
Rises 22:06:41 0° 339° (NNW) 3,096 8.7 -18.9°
Reaches altitude 10° 22:09:02 10° 342° (NNW) 2,173 7.5 -19.1°
Maximum altitude 22:13:53 66° 65° (ENE) 766 3.9 -19.5°
Enters shadow 22:15:29 41° 132° (SE) 1,016 4.2 -19.7°
